千帆星座-126(QIANFAN-126)

导读 | 豆包AI

QIANFAN-126(NORAD 68653)是中国垣信卫星千帆星座的第七批组网卫星之一,于2026年4月7日在海南商业航天发射场由长征八号运载火箭以“一箭18星”方式成功送入预定轨道。该卫星入轨后,千帆星座在轨卫星数量达到126颗,标志着星座组网建设提速。 千帆星座是中国首个进入正式组网阶段的巨型低轨商业卫星星座,规划分为三步走,目标是最终部署超过1.5万颗卫星,QIANFAN-126的成功发射为其2026年内实现初步全球覆盖奠定了基础。

基本信息
目录编号:
68653
目录名称:
QIANFAN-126
国际标识:
2026-075T
轨道中心:
EARTH
卫星名称:
千帆星座-126
卫星全名:
千帆星座-126(QIANFAN-126)
卫星状态:
在轨 (已飞行25 天)
发射日期:
2026-04-07 UTC
国别 :
中国 (CN)
星等 :
--
轨道信息
数据来源 国际轨道数据 AOE轨道数据
星历时间 2026-05-02T05:34:46+0800
15小时前
查看轨道信息
2026-04-29T02:00:00+0800
3天前
查看轨道信息
半长轴 7207.198km 7186.811km
偏心率 0.0014905 0.0015917
轨道倾角 88.989° 88.987°
近地点辐角 134.687° 146.550°
升交点赤经 325.903° 326.266°
平近点角 225.554° 314.456°
近地点 818.318km 797.234km
远地点 839.804km 820.114km
周期 101.487分钟 101.056分钟
每日圈数 14.189044 14.249461
详细信息
卫星平台:
126
覆盖范围:
全球
运营商:
上海垣信卫星科技有限公司
运营商所在国:
中国
使用方式:
暂无
卫星简介
千帆星座,也被称为“G60星链”计划,是中国版“星链”的重要组成部分,旨在打造一个由1.4万多颗低轨宽频多媒体卫星构成的庞大星座。千帆星座计划由上海垣信卫星科技有限公司负责实施,于2023年启动建设。该项目是我国第二个低轨卫星大星座,旨在通过构建庞大的卫星网络,为全球用户提供高质量的通信和宽带互联网服务。
2D轨道图
3D轨道图
轨道高度分析图
轨道倾角分析图
轨道综合分析图
查看轨道综合分析图